Garden City, KS

11:17 AM CDT on March 24, 2017 (GMT -0500)
Garden City Regional

Weather History for KGCK - February, 2012

Change the Weather History Date:

Thursday, February 9, 2012

  Actual Average Record
Temperature  
Mean Temperature 32 °F 33 °F  
Max Temperature 39 °F 47 °F 85 °F (1976)
Min Temperature 25 °F 20 °F -9 °F (2011)
Degree Days  
Heating Degree Days 33 32  
Month to date heating degree days 293  
Since 1 July heating degree days 3473  
Cooling Degree Days 0 0  
Month to date cooling degree days 0  
Year to date cooling degree days 0  
Moisture  
Dew Point 26 °F    
Average Humidity 85    
Maximum Humidity 100    
Minimum Humidity 67    
Precipitation  
Precipitation 0.00 in 0.02 in 0.29 in (1965)
Month to date precipitation 0.15  
Year to date precipitation 0.49  
Sea Level Pressure  
Sea Level Pressure 30.20 in    
Wind  
Wind Speed 6 mph (WSW)    
Max Wind Speed 12 mph    
Max Gust Speed -    
Visibility 8 miles    
Events      
T = Trace of Precipitation, MM = Missing Value Source: NWS Daily Summary

Daily Weather History Graph

Daily Weather History Graph

Search for Another Location

Airport or City:

Trip Planner

Search our weather history database for the weather conditions in past years. The results will help you decide how hot, cold, wet, or windy it might be!

Date:

Astronomy

Feb. 09, 2012 Rise Set
Actual Time 7:39 AM CST 6:14 PM CST
Civil Twilight 7:12 AM CST 6:41 PM CST
Nautical Twilight 6:41 AM CST 7:13 PM CST
Astronomical Twilight 6:11 AM CST 7:43 PM CST
Moon 8:41 PM CST (2/9) 8:20 AM CST (2/9)
Length of Visible Light 11h 29m
Length of Day
10h 34m
Waning Gibbous, 96% of the Moon is Illuminated
Feb 9
Waning Gibbous
Feb 14
Last Quarter
Feb 21
New
Feb 29
First Quarter
Mar 8
Full

Hourly Weather History & Observations

Time (CST) Temp. Windchill Dew Point Humidity Pressure Visibility Wind Dir Wind Speed Gust Speed Precip Events Conditions
12:54 AM 26.1 °F 16.2 °F 24.1 °F 92% 30.31 in 7.0 mi South 10.4 mph - N/A   Overcast
1:54 AM 26.1 °F 16.8 °F 25.0 °F 96% 30.29 in 6.0 mi South 9.2 mph - N/A   Overcast
2:54 AM 25.0 °F 18.1 °F 24.1 °F 96% 30.29 in 4.0 mi SSE 5.8 mph - N/A   Overcast
3:54 AM 25.0 °F 17.1 °F 24.1 °F 96% 30.26 in 3.0 mi SSE 6.9 mph - N/A   Overcast
4:54 AM 25.0 °F 19.3 °F 24.1 °F 96% 30.27 in 3.0 mi SSE 4.6 mph - N/A   Overcast
5:54 AM 25.0 °F 19.3 °F 25.0 °F 100% 30.27 in - SSW 4.6 mph - N/A   Overcast
6:54 AM 25.0 °F 17.1 °F 24.1 °F 96% 30.26 in 7.0 mi SSW 6.9 mph - N/A   Overcast
7:54 AM 26.1 °F 20.5 °F 25.0 °F 96% 30.27 in 5.0 mi SSW 4.6 mph - N/A   Overcast
8:54 AM 26.1 °F 20.5 °F 25.0 °F 96% 30.27 in 6.0 mi WSW 4.6 mph - N/A   Overcast
9:40 AM 26.6 °F 22.6 °F 24.8 °F 93% 30.17 in 5.0 mi WNW 3.5 mph - N/A   Overcast
9:54 AM 27.0 °F 20.5 °F 25.0 °F 92% 30.26 in 6.0 mi WNW 5.8 mph - N/A   Overcast
10:54 AM 28.9 °F - 25.0 °F 85% 30.23 in 7.0 mi Calm Calm - N/A   Overcast
11:03 AM 28.4 °F - 24.8 °F 86% 30.15 in 8.0 mi Calm Calm - N/A   Overcast
11:54 AM 30.9 °F - 26.1 °F 82% 30.20 in 9.0 mi Calm Calm - N/A   Mostly Cloudy
12:54 PM 32.0 °F 27.5 °F 26.1 °F 79% 30.18 in 9.0 mi WNW 4.6 mph - N/A   Overcast
1:54 PM 35.1 °F 30.1 °F 27.0 °F 72% 30.15 in 10.0 mi WNW 5.8 mph - N/A   Overcast
2:54 PM 37.0 °F 33.3 °F 28.0 °F 70% 30.13 in 9.0 mi WNW 4.6 mph - N/A   Overcast
3:54 PM 39.0 °F - 28.9 °F 67% 30.13 in 10.0 mi Calm Calm - N/A   Scattered Clouds
4:54 PM 39.0 °F 36.8 °F 30.0 °F 70% 30.13 in 10.0 mi South 3.5 mph - N/A   Clear
5:54 PM 36.0 °F 32.1 °F 30.0 °F 79% 30.13 in 8.0 mi South 4.6 mph - N/A   Clear
6:54 PM 34.0 °F 28.0 °F 28.9 °F 82% 30.15 in 8.0 mi SW 6.9 mph - N/A   Clear
7:54 PM 32.0 °F 26.4 °F 28.9 °F 88% 30.16 in 9.0 mi WSW 5.8 mph - N/A   Clear
8:54 PM 34.0 °F 27.2 °F 25.0 °F 70% 30.17 in 10.0 mi NW 8.1 mph - N/A   Overcast
9:54 PM 34.0 °F 26.0 °F 26.1 °F 73% 30.18 in 10.0 mi NW 10.4 mph - N/A   Overcast
10:54 PM 32.0 °F 23.0 °F 25.0 °F 75% 30.18 in 10.0 mi WNW 11.5 mph - N/A   Partly Cloudy
11:54 PM 30.9 °F 21.7 °F 25.0 °F 79% 30.18 in 10.0 mi NW 11.5 mph - N/A   Clear